Regional Weather Roundup
Issued by NWS

Home | Current Version | Previous Version | Graphics & Text | Print | Product List | Glossary On
Versions: 1 2 3 4 5 6 7 8 9 10 11 12 13 14 15 16 17 18 19 20 21 22 23 24 25 26 27 28
000
ASUS45 KCYS 251010
RWRWY

WYOMING REGIONAL WEATHER ROUNDUP
NATIONAL WEATHER SERVICE CHEYENNE WY
400 AM MDT WED MAY 25 2016

NOTE:  "FAIR" INDICATES FEW OR NO CLOUDS BELOW 12,000 FEET
WITH NO SIGNIFICANT WEATHER AND/OR OBSTRUCTIONS TO VISIBILITY.

WYZ001-251100-
YELLOWSTONE NATIONAL PARK

CITY           SKY/WX    TMP DP  RH WIND       PRES   REMARKS
LK YELLOWSTONE   N/A     33  31  92 CALM      30.01S
W YELLOWSTONE  NOT AVBL

$$
WYZ002>013-054>058-071-098>099-251100-
NORTHERN WYOMING

CITY           SKY/WX    TMP DP  RH WIND       PRES   REMARKS
JACKSON        CLOUDY    39  39 100 SW5       29.99S
CODY           FAIR      45  41  87 CALM      29.91S
GREYBULL       CLOUDY    51  49  92 CALM      29.89S
WORLAND        MOCLDY    48  45  89 S6        29.89S
SHERIDAN       CLOUDY    48  45  89 NW3       29.91S
BUFFALO        MOCLDY    46  42  86 NW15G25   29.92R
GILLETTE       CLOUDY    46  45  96 W3        29.88S
HULETT         CLOUDY    50  46  87 S3        29.87S
NEWCASTLE      CLOUDY    46  46 100 CALM      29.88S

$$
WYZ014>020-022>026-101>103-251100-
CENTRAL WYOMING

CITY           SKY/WX    TMP DP  RH WIND       PRES   REMARKS
BIG PINEY      LGT RAIN  38  36  92 E3        30.02R
PINEDALE       RAIN      36  36 100 E3        30.03S
DUBOIS         CLOUDY    41  30  65 N8        29.96R
LANDER         FAIR      41  37  86 SE3       29.91R
RIVERTON       FAIR      41  37  86 CALM      29.92S
CASPER         FAIR      40  35  83 SW7       29.92R
DOUGLAS          N/A    N/A N/A N/A MISG      29.90F

$$
WYZ021-027>030-104>119-251100-
SOUTHERN WYOMING

CITY           SKY/WX    TMP DP  RH WIND       PRES   REMARKS
EVANSTON       CLOUDY    37  33  85 SW5       30.03R WCI  33
KEMMERER         N/A     34  32  93 CALM      30.03S
FORT BRIDGER   PTSUNNY   37  36  93 W6        30.06R WCI  33
ROCK SPRINGS   CLOUDY    39  33  79 S3        30.02R
DIXON          PTSUNNY   42  39  89 E7        30.05F
RAWLINS        FAIR      43  33  68 SW14      30.00S
SARATOGA       FAIR      37  37 100 SE12      30.04F WCI  30
LARAMIE        FAIR      34  32  92 SW8       30.02R WCI  27
CHEYENNE       FAIR      46  34  62 NW10      29.96R
TORRINGTON     FAIR      46  43  89 CALM      29.90R
PINE BLUFFS    FAIR      39  39 100 CALM      29.94R

$$




USA.gov is the U.S. government's official web portal to all federal, state and local government web resources and services.